Regional Weather Roundup
Issued by NWS Grand Forks, ND

Home | Current Version | Previous Version | Text Only | Print | Product List | Glossary Off
Versions: 1 2 3 4 5 6 7 8 9 10 11 12 13 14 15 16 17 18 19 20 21 22 23 24 25 26 27 28 29 30 31 32 33 34 35 36 37 38 39 40 41 42 43 44 45 46 47 48 49 50

000
ASUS43 KFGF 281431
RWRFGF
PRAIRIE TO PINES  WEATHER ROUNDUP
NATIONAL WEATHER SERVICE EASTERN NORTH DAKOTA/GRAND FORKS ND
900 AM CDT SUN MAY 28 2017

 **SATELLITE DATA USED TO AUGMENT SKY COVER AT AUTOMATED STATIONS**
 *****  WEATHER ACROSS EASTERN NORTH DAKOTA  *****

CITY           SKY/WX    TMP DP  RH WIND       PRES   REMARKS
GRAND FORKS    LGT RAIN  55  51  86 W12       29.75R
GRAND FRKS AFB CLOUDY    55  49  81 NW13      29.76S
DEVILS LAKE    FAIR      57  46  67 NW18G29   29.81R
FARGO          CLOUDY    57  49  74 NW13      29.77R
WAHPETON ARPT  CLOUDY    55  46  71 NW13G20   29.79S
$$

 ***** WEATHER ACROSS CENTRAL AND WESTERN NORTH DAKOTA  *****

CITY           SKY/WX    TMP DP  RH WIND       PRES   REMARKS
BISMARCK       FAIR      61  43  51 NW15G22   29.93R
MINOT          FAIR      62  45  53 NW21G28   29.89S
JAMESTOWN      CLOUDY    60  47  61 NW15      29.82S
MINOT AFB      FAIR      59  45  58 NW21      29.88S
GARRISON         N/A     56  45  66 NW15      29.92R
WILLISTON      FAIR      62  39  42 VRB5      29.98S
DICKINSON      CLOUDY    55  37  50 W16       29.99R
HETTINGER      FAIR      61  37  41 NW14G23   30.03R
$$

 *****  OTHER AIRPORT OBSERVATIONS IN OUR AREA  *****

CITY           SKY/WX    TMP DP  RH WIND       PRES   REMARKS
WALHALLA       NOT AVBL
GRAFTON AIRPOR PTSUNNY   54  54 100 NW14      29.78R
VALLEY CITY AR CLOUDY    57  50  77 NW12      29.83R
CANDO          NOT AVBL
CAVALIER APRT  FAIR      54  52  94 NW12      29.75S
GWINNER        CLOUDY    59  48  67 MISG      29.82R
SHEYENNE NWR     N/A     57  48  73 NW9       29.95S
ROLLA          PTSUNNY   55  46  71 NW21G26   29.81F
 ***** THE ABOVE OBSERVATIONS ARE NON NWS ARE NOT QUALITY
       CONTROLLED AND MAY MIS-REPORT RAIN FOR SNOW...
$$

  *****  WEATHER ACROSS NORTHERN MINNESOTA  *****

CITY           SKY/WX    TMP DP  RH WIND       PRES   REMARKS
FLAG ISLAND    FAIR      54  48  82 NW10      29.64F
WARROAD        PTSUNNY   57  52  82 NW10      29.68S
ROSEAU         FAIR      54  48  82 NW14      29.69S
HALLOCK        CLOUDY    54  52  94 NW10      29.73S
THF RVR FALLS  CLOUDY    52  50  93 NW10      29.74R
BAUDETTE       FAIR      60  49  66 NW13      29.65R
WASKISH        CLOUDY    55  48  76 NW7       29.68S
CROOKSTON      LGT RAIN  54  52  94 NW12      29.75S
STEPHEN NDAWN    N/A     52  52 100 NW10        N/A
GREENBUSH NDAW   N/A     54  50  87 W12         N/A
$$
  *****  WEATHER ACROSS CENTRAL AND WEST MINNESOTA  *****

CITY           SKY/WX    TMP DP  RH WIND       PRES   REMARKS
FOSSTON        FAIR      55  48  76 NW12G17   29.73S
BEMIDJI        FAIR      57  50  77 NW10G16   29.70S
PARK RAPIDS    LGT RAIN  55  47  74 NW13      29.72R
ELBOW LAKE     FAIR      58  48  70 NW12      29.78S
WADENA         FAIR      57  48  72 W13       29.74S
DETROIT LAKES  FAIR      55  48  76 NW10      29.77R
MOORHEAD       FAIR      55  46  71 NW9       29.78R
FERGUS FALLS   PTSUNNY   55  48  76 NW12      29.76S
MORRIS MN      FAIR      63  48  59 NW16      29.78S
STAPLES        CLOUDY    55  46  71 W13       29.74R
$$
  *****  WEATHER ELSEWHERE ACROSS MINNESOTA  *****

CITY           SKY/WX    TMP DP  RH WIND       PRES   REMARKS
DULUTH         PTSUNNY   54  51  90 W3        29.66S
INTRNTL FALLS  CLOUDY    54  47  77 SW6       29.64R
ELY            RAIN      52  50  93 SE6       29.68R
CLOQUET        CLOUDY    55  52  88 W5        29.66F
WHEATON        PTSUNNY   61  45  55 W14G21    29.81R
BRAINERD       PTSUNNY   55  47  74 NW10      29.72S
HIBBING        FAIR      58  51  78 VRB6      29.65S
ALEXANDRIA     FAIR      58  48  69 NW13      29.77S
SAINT CLOUD    FAIR      57  48  72 NW18      29.74S
MINNEAPOLIS    FAIR      63  45  51 NW16      29.74R
$$

  *****  WEATHER ACROSS SOUTH DAKOTA  *****

CITY           SKY/WX    TMP DP  RH WIND       PRES   REMARKS
SIOUX FALLS    FAIR      62  49  62 VRB7      29.87R
BROOKINGS      FAIR      59  46  62 NW10      29.86R
WATERTOWN      FAIR      61  43  51 NW12      29.84R
HURON          FAIR      59  48  67 NW13      29.88R
SISSETON         N/A     62  46  55 NW16      29.79S
ABERDEEN       CLOUDY    59  47  64 NW13      29.86R
MITCHELL       FAIR      61  48  62 NW10      29.90R
PIERRE         FAIR      61  43  51 NW16      29.95R
MOBRIDGE       FAIR      60  45  57 NW10      29.92R
RAPID CITY     PTSUNNY   61  40  45 NW15      30.09R
$$

  *****  SOME WEATHER IN NEARBY STATES *****

CITY           SKY/WX    TMP DP  RH WIND       PRES   REMARKS
GLASGOW MT     FAIR      57  45  64 NW8       30.05S
GREAT FALLS MT FAIR      57  43  59 SW8       30.24R
CHEYENNE WY    FAIR      53  32  44 NW9       30.28R
SCOTTSBLUFF NE FAIR      54  41  61 NW9       30.18S
OMAHA NE       FAIR      65  52  62 NW6       29.91S
DES MOINES IA  FAIR      66  54  65 W8        29.86R
DAVENPORT IA   FAIR      65  59  81 NW9       29.81R
CHICAGO IL     PTSUNNY   69  60  73 NW3       29.74S
EAU CLAIRE WI  FAIR      64  51  62 W13       29.71S
LA CROSSE WI   FAIR      66  56  70 S8        29.75F
$$

  *****  SOME NATIONAL WEATHER *****

CITY           SKY/WX    TMP DP  RH WIND       PRES   REMARKS
LA GUARDIA NY  PTSUNNY   68  57  68 E9        29.92F
RALEIGH NC     PTSUNNY   78  70  76 SW10      29.87R
ATLANTA GA     PTSUNNY   69  66  90 SW8       29.99F
NEW ORLEANS LA CLOUDY    81  74  79 N7        30.06R
OKLAHOMA CITY  FAIR      69  59  70 N17       30.02R
ALBUQUERQUE NM FAIR      60  39  45 E24       30.26R
SALT LAKE CITY FAIR      60  39  45 SE7       30.25R
LOS ANGELES CA PTSUNNY   60  57  89 S7        30.03R
BOISE ID       FAIR      58  42  55 CALM      30.21R
SEATTLE WA     FAIR      59  49  69 SW3       30.11R
$$

*** WEATHER ACROSS MANITOBA...SASKATCHEWAN AND ONTARIO ***
                ***ONTARIO***

CITY           SKY/WX    TMP DP  RH WIND       PRES   REMARKS
GERALDTON      CLOUDY    68  41  37 S3        29.67S
THUNDER BAY    PTSUNNY   52  43  71 E9        29.67F
SIOUX LOOKOUT  CLOUDY    55  48  76 VRB2      29.61S
TORONTO        PTSUNNY   64  55  72 E6        29.83F
BIG TROUT LK   PTSUNNY   55  48  76 SE3       29.62S
PICKLE LAKE    PTSUNNY   64  45  48 VRB2      29.62S
DRYDEN         MOSUNNY   57  48  72 SW6       29.60S
KENORA         PTSUNNY   57  48  72 NW6       29.63S
$$
                *** MANITOBA***

CITY           SKY/WX    TMP DP  RH WIND       PRES   REMARKS
BRANDON        PTSUNNY   55  45  67 NW26G32   29.77F
DAUPHIN        LGT RAIN  52  46  82 N18G29    29.76R
ISLAND LAKE    DRIZZLE   52  50  93 CALM      29.61R
PILOT MOUND      N/A     52  46  82 NW12G17     N/A
THE PAS        CLOUDY    45  41  87 N12       29.81R
THOMPSON       DRIZZLE   41  37  87 N7        29.75R
WINNIPEG       CLOUDY    52  50  93 NW20      29.71R
LYNN LAKE      LGT RAIN  39  39 100 N12G22    29.87R
CHURCHILL      LGT RAIN  34  34 100 NE13      29.81R WCI  25
GILLAM         LGT RAIN  36  36 100 N9        29.70R
$$
                ***SASKATCHEWAN***

CITY           SKY/WX    TMP DP  RH WIND       PRES   REMARKS
ESTEVAN        PTSUNNY   54  45  71 W15       29.92F
KINDERSLEY     SUNNY     55  41  58 N18       30.15R
LLOYDMINSTER   MOSUNNY   52  43  71 NW14G23   30.20R
PRINCE ALBERT  MOSUNNY   55  45  67 NW22      30.02R
REGINA         MOSUNNY   57  45  62 N15G25    29.98R
YORKTON        LGT RAIN  50  41  71 N25G39    29.88R
N. BATTLEFORD  SUNNY     54  43  66 NW18      30.15R
LA RONGE       CLOUDY    50  45  81 NW14G23   30.01R
SASKATOON      MOSUNNY   57  45  62 N16G22    30.08R
SWIFT CURRENT  SUNNY     55  41  58 N15       30.10R
$$
NOTE: THESE ARE AUTOMATED STATIONS WITH LIMITED QUALITY CONTROL
      "FAIR" INDICATES FEW OR NO CLOUDS BELOW 12,000 FEET WITH NO
      SIGNIFICANT WEATHER AND/OR OBSTRUCTIONS TO VISIBILITY.
      SKY/WX - SKY CONDITION AND SIGNIFICANT WEATHER.
      TMP - AIR TEMPERATURE.    DP   - DEWPOINT TEMPERATURE.
      RH  - RELATIVE HUMIDITY.  PRES - PRESSURE.
      HX  - HEAT INDEX.         WCI  - WIND CHILL INDEX.
$



USA.gov is the U.S. government's official web portal to all federal, state and local government web resources and services.